Location: Whelan
(46.7841°N, 117.1166°W)
Time: 12:41:18
(UTC+00:00)

Envisat - Pass Details

Date: 25 April 2024
Orbit: 762 x 764 km, 98.3° (Epoch: 26 May)

Event Time Altitude Azimuth Distance (km) Brightness Sun altitude
Rises 10:48:52 0° 18° (NNE) 3,239 7.3 -17.2°
Reaches altitude 10° 10:51:16 10° 24° (NNE) 2,308 6.5 -16.9°
Maximum altitude 10:56:12 50° 99° (E) 968 3.8 -16.3°
Drops below altitude 10° 11:01:06 10° 175° (S) 2,291 5.1 -15.7°
Enters shadow 11:01:28 - 176° (S) 2,428 5.2 -15.6°
